COSMOS 1275 DEB, 12749

Orbit data source: Space-Track

COSMOS 1275 DEB, 12749 is space debris in LEO originally from a launch on Thu, 04 Jun 1981 UTC launched from the Plesetsk Missile And Space Complex (PKMTR). Debris objects in space refer to the collection of defunct objects orbiting the Earth. Examples of debris include non-operational satellites, rocket bodies, and fragments generated from explosions, collisions, or faulty payload assembly.

Loading next visibility...
Identifier
12749, 1981-053CS
Orbit
LEO
Country
Flag of CISCIS
Related business
Manufacturer
Unknown
Mission
Spacecraft
Bus & Motor
Unknown
Mass
Unknown
Launch date (UTC)
1981-06-04 (45 years ago)
Launch vehicle
Unknown
Launch site
Plesetsk Missile And Space Complex (PKMTR)
Object type
Payload
Rocket body
Debris
Shape & HBR
Unknown shape, 0.2 m
Radar Cross Section
Medium (>0.1 m² and <1 m²)

Expand to show TLE details & history
Last TLE update: 12 hours ago

TLE from 12 hours ago
0 COSMOS 1275 DEB
1 12749U 81053CS  26254.80594843  .00000294  00000-0  28224-3 0  9996
2 12749  82.8140   9.7208 0060818 298.9711 185.7364 13.76395013257943
Epoch: 2026-09-11T19:20Z
TLE epoch observation values (Epoch: 2026-09-11T19:20:33.944Z)
Latitude
54.81205°
Longitude
-101.49148°
Altitude
1,030.274 km
Speed
7.32 km/s
True Right ascension
11h 57m 53s
True Declination
54° 39' 21"
Sunlit
Object was in daylight at epoch
Visualization orbit readout
Latitude
Unknown
Longitude
Unknown
Altitude
Unknown
Speed
Unknown
Apparent Right ascension
Unknown
Apparent Declination
Unknown
Sunlit
N/A
Visualization observer readout
Local Sidereal Time
23:49:06
Azimuth
Unknown
Elevation
Unknown
Doppler factor
Unknown
Orbital elements
Apogee altitude
1,018.566 km
Perigee altitude
929.139 km
Semi-major axis
7,351.99 km
Eccentricity
0.00608
Inclination
82.814°
RAAN
9.7208°
Arg. of periapsis
298.9711°
True anomaly
185.66726°
Mean anomaly
185.7364°
Eccentric anomaly
185.70178°
Mean motion
3.44299 °/min
Orbital period
104.56 mins
BSTAR
0.00028224
Loading maneuver chart data...
Computing Atmospheric mass density...
Loading historical data...
Loading historical data...
Loading historical data...
Loading historical data...
Loading historical data...
Loading historical data...
Loading historical data...

Documentation

Showing up to 5 results
|